Location: Lecco
(45.8566°N, 9.3977°E)
Time: 01:27:46
(UTC+02:00)

ISS - Pass Details

Date: 20 July 2018
Orbit: 402 x 408 km, 51.6° (Epoch: 22 July)

Event Time Altitude Azimuth Distance (km) Brightness Sun altitude
Rises 00:36:30 0° 267° (W) 2,320 0.1 -22.4°
Reaches altitude 10° 00:38:41 10° 276° (W) 1,463 -0.8 -22.5°
Maximum altitude 00:41:45 37° 345° (NNW) 652 -2.3 -22.6°
Drops below altitude 10° 00:44:51 10° 55° (NE) 1,469 -0.7 -22.7°
Sets 00:47:03 0° 64° (ENE) 2,332 0.2 -22.8°
